Regional Weather Roundup
Issued by NWS Newport/Morehead, NC

Current Version | Previous Version | Text Only | Print | Product List | Glossary Off
Versions: 1 2 3 4 5 6 7 8 9 10 11 12 13 14 15 16 17 18 19 20 21 22 23 24 25 26 27 28 29 30 31 32 33 34 35 36 37 38 39 40 41 42 43 44 45 46 47 48 49 50
000 ASUS42 KMHX 010325 RWRMHX WEATHER ROUNDUP FOR EASTERN NORTH CAROLINA NATIONAL WEATHER SERVICE NEWPORT/MOREHEAD CITY NC 1100 PM EDT MON AUG 31 2015 NOTE: "FAIR" INDICATES FEW OR NO CLOUDS BELOW 12,000 FEET WITH NO SIGNIFICANT WEATHER AND/OR OBSTRUCTIONS TO VISIBILITY NCZ015>017-031-032-045>047-102-103-010400- NORTH COAST CITY SKY/WX TMP DP RH WIND PRES REMARKS EDENTON CLOUDY 73 72 95 N5 30.07S ELIZABETH CITY CLOUDY 74 72 93 E3 30.08F KITTY HAWK MOCLDY 73 70 89 CALM 30.07S MANTEO CLOUDY 74 73 96 CALM 30.08S $$ NCZ045>047-081-094-103-104-010400- CENTRAL COAST CITY SKY/WX TMP DP RH WIND PRES REMARKS FRISCO LGT RAIN 79 75 87 S12 30.07S SWANQUARTER NOT AVBL $$ NCZ095-097-098-100-101-010400- SOUTHERN COAST CITY SKY/WX TMP DP RH WIND PRES REMARKS BEAUFORT PTCLDY 80 76 87 SE7 30.05S CEDAR ISLAND NOT AVBL JACKSONVILLE MOCLDY 75 73 93 CALM 30.05R PINEY ISLAND MOCLDY N/A N/A N/A S5 30.05F WILMINGTON CLOUDY 75 74 96 CALM 30.05S $$ NCZ011>013-027>030-043-044-078>080-089-090>093-098-010400- COASTAL PLAIN CITY SKY/WX TMP DP RH WIND PRES REMARKS AHOSKIE CLOUDY 71 70 97 CALM 30.08F FOG CLINTON PTCLDY 74 74 100 CALM 30.07F ELIZABETHTOWN MOCLDY 75 75 98 CALM 30.07S GOLDSBORO MOCLDY 73 73 100 CALM 30.05F GREENVILLE MOCLDY 75 73 94 CALM 30.08S HAVELOCK RAIN 76 74 93 CALM 30.06S KENANSVILLE N/A 74 73 97 CALM 30.08S KINSTON CLOUDY 75 74 97 CALM 30.07F NEW BERN CLOUDY 76 74 93 CALM 30.06F RICHLANDS PTCLDY 73 70 88 CALM 30.05F ROCKY MOUNT CLOUDY 74 72 93 NE3 30.08S WASHINGTON MOCLDY 74 73 97 CALM 30.06F WHITEVILLE PTCLDY 74 73 95 CALM 30.07S $$ AMZ130-135-150-152-154-156-158-170-250-252-270-ANZ085-086-088-633-658-670-010400- MARINE OBSERVATIONS STATION/POSITION TIME TEMP WIND PRES WAVE SWELL AIR SEA DIR/SP/G HT/PER HT/PER (UTC) (F) (DEG/KT/KT) (MB) (FT/S) (FT/S) CHESAPEAKE LIGHT 0300 75 180/ 11/ 11 1019.0 64 E VA BEACH 0250 76 78 190/ 4/ 4 1018.4 3/ 8 3/ 8 DUCK 0300 77 78 110/ 5/ 5 1017.7 2 E DUCK 0211 78 N/A 2/ 8 OREGON INLET 0300 76 80 120/ 3/ 3 1018.2 13E OREGON INLT 0300 78 N/A 2/10 2/11 HATTERAS CG 0300 80 80 160/ 9/ 13 1017.7 DIAMOND BUOY 0250 81 83 170/ 14/ 16 1018.2 4/ 8 2/ 8 CAPE LOOKOUT 0300 79 160/ 12/ 13 1017.3 BEAUFORT LAB 0300 79 79 170/ 9/ 12 1016.8 30 SE NEW RVR IN 0208 79 81 210/ 8/ 12 1017.7 30 SE NEW RVR IN 0225 81 N/A 4/ 5 27 SE WRIGHTSVLE 0200 75 81 200/ 4/ 8 N/A 5 SE WRIGHTSVLE 0208 78 82 220/ 4/ 8 1017.3 225 S CAPE HAT 0250 84 84 210/ 12/ 14 1019.6 4/ 6 3/ 6 41 SE CHARLESTON 0250 82 83 250/ 6/ 8 1018.2 3/ 8 3/ 8 $$

USA.gov is the U.S. government's official web portal to all federal, state and local government web resources and services.